When you browse on this site, cookies collect data to enhance your experience and personalize the content and advertising you see.
Visit our Privacy Policy to learn more. By continuing to use the site, you agree to this use of cookies and data.
  • In Hungary
  • List of Countries
  • For 7 days
  • Water Temperature
  • Weather Map
  • News
  • Weather Widgets
  • user-avatar
    Login

    Hourly Weather Sivka-Voinylivs'ka

    Today, 1 April, Wednesday

    Time Temperature Precipitation Wind Pressure Humidity
    00:00 -1°C° 0 mm 1 mps 745 mmHg 53%
    01:00 -1°C° 0 mm 1 mps 745 mmHg 54%
    02:00 -1°C° 0 mm 1 mps 745 mmHg 57%
    03:00 -1°C° 0 mm 1 mps 744 mmHg 58%
    04:00 -1°C° 0 mm 1 mps 744 mmHg 59%
    05:00 -1°C° 0 mm 1 mps 744 mmHg 60%
    06:00 0°C° 0 mm 1 mps 744 mmHg 56%
    07:00 -1°C° 0 mm 2 mps 744 mmHg 52%
    08:00 +1°C° 0 mm 2 mps 744 mmHg 49%
    09:00 +2°C° 0 mm 2 mps 744 mmHg 45%
    10:00 +3°C° 0 mm 3 mps 744 mmHg 42%
    11:00 +4°C° 0 mm 3 mps 743 mmHg 38%
    12:00 +4°C° 0 mm 3 mps 743 mmHg 37%
    13:00 +5°C° 0 mm 3 mps 742 mmHg 36%
    14:00 +7°C° 0 mm 3 mps 742 mmHg 35%
    15:00 +7°C° 0 mm 3 mps 741 mmHg 36%
    16:00 +7°C° 0 mm 3 mps 741 mmHg 37%
    17:00 +5°C° 0 mm 3 mps 740 mmHg 39%
    18:00 +5°C° 0 mm 2 mps 740 mmHg 45%
    19:00 +4°C° 0 mm 1 mps 740 mmHg 52%
    20:00 +1°C° 0 mm 0 mps 740 mmHg 58%
    21:00 +2°C° 0 mm 1 mps 740 mmHg 59%
    22:00 +1°C° 0 mm 1 mps 740 mmHg 60%
    23:00 +1°C° 0 mm 1 mps 740 mmHg 61%

    Tomorrow, 2 April, Thursday

    Time Temperature Precipitation Wind Pressure Humidity
    00:00 +1°C° 0 mm 1 mps 740 mmHg 60%
    01:00 +1°C° 0 mm 1 mps 740 mmHg 60%
    02:00 0°C° 0 mm 1 mps 740 mmHg 59%
    03:00 0°C° 0 mm 1 mps 739 mmHg 58%
    04:00 0°C° 0 mm 1 mps 739 mmHg 57%
    05:00 0°C° 0 mm 1 mps 739 mmHg 56%
    06:00 -1°C° 0 mm 2 mps 739 mmHg 52%
    07:00 +2°C° 0 mm 2 mps 739 mmHg 48%
    08:00 +3°C° 0 mm 2 mps 739 mmHg 43%
    09:00 +5°C° 0 mm 2 mps 739 mmHg 40%
    10:00 +5°C° 0 mm 3 mps 738 mmHg 36%
    11:00 +8°C° 0 mm 3 mps 738 mmHg 33%
    12:00 +9°C° 0 mm 3 mps 738 mmHg 33%
    13:00 +10°C° 0 mm 3 mps 738 mmHg 33%
    14:00 +11°C° 0 mm 3 mps 738 mmHg 33%
    15:00 +10°C° 0 mm 3 mps 737 mmHg 35%
    16:00 +10°C° 0 mm 3 mps 737 mmHg 37%
    17:00 +10°C° 0 mm 3 mps 736 mmHg 39%
    18:00 +8°C° 0 mm 3 mps 736 mmHg 45%
    19:00 +6°C° 0 mm 2 mps 736 mmHg 52%
    20:00 +4°C° 0 mm 2 mps 736 mmHg 58%
    21:00 +3°C° 0 mm 2 mps 736 mmHg 60%
    22:00 +2°C° 0 mm 2 mps 736 mmHg 61%
    23:00 +3°C° 0 mm 1 mps 736 mmHg 63%

    Day after tomorrow, 3 April, Friday

    Time Temperature Precipitation Wind Pressure Humidity
    00:00 +2°C° 0 mm 1 mps 736 mmHg 63%
    01:00 +2°C° 0 mm 1 mps 736 mmHg 63%
    02:00 +2°C° 0 mm 1 mps 736 mmHg 63%
    03:00 +2°C° 0 mm 1 mps 736 mmHg 62%
    04:00 +1°C° 0 mm 1 mps 736 mmHg 60%
    05:00 +1°C° 0 mm 1 mps 735 mmHg 59%
    06:00 +3°C° 0 mm 1 mps 736 mmHg 56%
    07:00 +3°C° 0 mm 2 mps 736 mmHg 52%
    08:00 +3°C° 0 mm 3 mps 736 mmHg 48%
    09:00 +5°C° 0 mm 3 mps 736 mmHg 46%
    10:00 +7°C° 0 mm 4 mps 736 mmHg 43%
    11:00 +10°C° 0 mm 4 mps 736 mmHg 40%
    12:00 +10°C° 0 mm 5 mps 736 mmHg 40%
    13:00 +12°C° 0 mm 5 mps 736 mmHg 40%
    14:00 +12°C° 0 mm 5 mps 736 mmHg 40%
    15:00 +12°C° 0 mm 5 mps 736 mmHg 42%
    16:00 +12°C° 0 mm 5 mps 736 mmHg 44%
    17:00 +11°C° 0 mm 4 mps 736 mmHg 47%
    18:00 +10°C° 0 mm 4 mps 736 mmHg 53%
    19:00 +8°C° 0 mm 3 mps 737 mmHg 60%
    20:00 +5°C° 0 mm 3 mps 737 mmHg 66%
    21:00 +5°C° 0 mm 3 mps 738 mmHg 71%
    22:00 +4°C° 0 mm 3 mps 738 mmHg 76%
    23:00 +4°C° 0 mm 3 mps 739 mmHg 81%

    4 April, Saturday

    Time Temperature Precipitation Wind Pressure Humidity
    00:00 +4°C° 0 mm 3 mps 739 mmHg 83%
    01:00 +3°C° 0 mm 3 mps 740 mmHg 85%
    02:00 +4°C° 0 mm 2 mps 740 mmHg 87%
    03:00 +4°C° 0 mm 2 mps 740 mmHg 87%
    04:00 +4°C° 0 mm 2 mps 741 mmHg 88%
    05:00 +5°C° 0 mm 1 mps 741 mmHg 89%
    06:00 +5°C° 0 mm 1 mps 741 mmHg 85%
    07:00 +5°C° 0 mm 2 mps 742 mmHg 82%
    08:00 +6°C° 0 mm 2 mps 742 mmHg 79%
    09:00 +7°C° 0 mm 2 mps 743 mmHg 72%
    10:00 +8°C° 0 mm 2 mps 743 mmHg 65%
    11:00 +10°C° 0 mm 2 mps 743 mmHg 58%
    12:00 +10°C° 0.1 mm 3 mps 743 mmHg 56%
    13:00 +10°C° 0.1 mm 3 mps 744 mmHg 54%
    14:00 +11°C° 0.1 mm 3 mps 744 mmHg 52%
    15:00 +10°C° 0 mm 3 mps 744 mmHg 52%
    16:00 +10°C° 0 mm 3 mps 744 mmHg 53%
    17:00 +10°C° 0 mm 3 mps 744 mmHg 53%
    18:00 +9°C° 0 mm 3 mps 745 mmHg 58%
    19:00 +7°C° 0 mm 2 mps 745 mmHg 63%
    20:00 +6°C° 0 mm 2 mps 746 mmHg 68%
    21:00 +6°C° 0 mm 1 mps 747 mmHg 69%
    22:00 +6°C° 0 mm 1 mps 747 mmHg 71%
    23:00 +4°C° 0 mm 0 mps 748 mmHg 73%

    5 April, Sunday

    Time Temperature Precipitation Wind Pressure Humidity
    00:00 +5°C° 0 mm 1 mps 748 mmHg 74%
    01:00 +4°C° 0 mm 1 mps 748 mmHg 75%
    02:00 +4°C° 0 mm 1 mps 749 mmHg 76%
    03:00 +3°C° 0 mm 1 mps 749 mmHg 79%
    04:00 +3°C° 0 mm 1 mps 749 mmHg 81%
    05:00 +3°C° 0 mm 1 mps 750 mmHg 83%
    06:00 +4°C° 0 mm 1 mps 750 mmHg 80%
    07:00 +4°C° 0 mm 2 mps 750 mmHg 76%
    08:00 +5°C° 0 mm 2 mps 751 mmHg 73%
    09:00 +6°C° 0 mm 2 mps 751 mmHg 67%
    10:00 +8°C° 0 mm 3 mps 751 mmHg 61%
    11:00 +8°C° 0 mm 4 mps 752 mmHg 55%
    12:00 +10°C° 0 mm 4 mps 751 mmHg 52%
    13:00 +10°C° 0 mm 4 mps 751 mmHg 50%
    14:00 +11°C° 0 mm 4 mps 751 mmHg 47%
    15:00 +10°C° 0 mm 4 mps 751 mmHg 46%
    16:00 +10°C° 0 mm 4 mps 751 mmHg 45%
    17:00 +10°C° 0 mm 4 mps 751 mmHg 44%
    18:00 +7°C° 0 mm 4 mps 751 mmHg 47%
    19:00 +6°C° 0 mm 4 mps 752 mmHg 50%
    20:00 +4°C° 0 mm 4 mps 752 mmHg 53%
    21:00 +4°C° 0 mm 4 mps 753 mmHg 54%
    22:00 +3°C° 0 mm 4 mps 753 mmHg 55%
    23:00 +3°C° 0 mm 4 mps 753 mmHg 56%

    6 April, Monday

    Time Temperature Precipitation Wind Pressure Humidity
    00:00 +1°C° 0 mm 4 mps 754 mmHg 57%
    01:00 +1°C° 0 mm 4 mps 754 mmHg 58%
    02:00 0°C° 0 mm 4 mps 754 mmHg 59%
    03:00 0°C° 0 mm 4 mps 754 mmHg 58%
    04:00 -1°C° 0 mm 5 mps 754 mmHg 58%
    05:00 -1°C° 0 mm 5 mps 754 mmHg 57%
    06:00 -1°C° 0 mm 6 mps 754 mmHg 54%
    07:00 +1°C° 0 mm 6 mps 755 mmHg 50%
    08:00 +2°C° 0 mm 7 mps 755 mmHg 47%
    09:00 +3°C° 0 mm 7 mps 755 mmHg 44%
    10:00 +5°C° 0 mm 7 mps 755 mmHg 40%
    11:00 +6°C° 0 mm 7 mps 754 mmHg 37%
    12:00 +8°C° 0 mm 7 mps 754 mmHg 37%
    13:00 +9°C° 0 mm 7 mps 754 mmHg 36%
    14:00 +10°C° 0 mm 7 mps 754 mmHg 35%
    15:00 +10°C° 0 mm 7 mps 754 mmHg 36%
    16:00 +9°C° 0 mm 7 mps 753 mmHg 38%
    17:00 +9°C° 0 mm 7 mps 753 mmHg 39%
    18:00 +8°C° 0 mm 6 mps 753 mmHg 42%
    19:00 +5°C° 0 mm 6 mps 753 mmHg 44%
    20:00 +5°C° 0 mm 5 mps 753 mmHg 47%
    21:00 +3°C° 0 mm 5 mps 753 mmHg 47%
    22:00 +3°C° 0 mm 5 mps 753 mmHg 48%
    23:00 +3°C° 0 mm 5 mps 754 mmHg 48%
    Show more